SKY MUSTER 1 (NBN1A)

Last updated on Sun Dec 07 2025 00:02:48 GMT+0000 (Coordinated Universal Time)

1 40940U 15054A 25340.57906950 -.00000272 00000+0 00000+0 0 9997 2 40940 0.0141 305.9661 0002048 320.9080 157.4544 1.00266282 37323
UTC large
Height (km)
Speed (km/s)
/
Latitude / Longitude
Inclination (degrees)
Orbital Period (minutes)
Azimuth
Elevation
Range (km)
Doppler Factor

Next 0 passes for location: London (51.5072 / 0.1276)

Sorry there are no passes over London.